Weather reports worldwide

Advertisment
Decimomannu, Italy (16546): temperature & dewpoint: 29.03.2020 00:00:00 - 04.04.2020 00:00:00 (CEST)Decimomannu, Italy (16546): wind speed: 29.03.2020 00:00:00 - 04.04.2020 00:00:00 (CEST)Decimomannu, Italy (16546): wind direction: 29.03.2020 00:00:00 - 04.04.2020 00:00:00 (CEST)Decimomannu, Italy (16546): reduced air pressure: 29.03.2020 00:00:00 - 04.04.2020 00:00:00 (CEST)Decimomannu, Italy (16546): visibility: 29.03.2020 00:00:00 - 04.04.2020 00:00:00 (CEST)
Date & Time tt [°C] td [°C] ff [km/h] ff [kn] dd ppp [hPa] vv [km]
04.04.2020 00:00:00 11,0 9,0 4 2 N - 10
03.04.2020 23:00:00 11,6 9,0 2 1 N 1013,7 12
03.04.2020 22:00:00 12,0 9,0 2 1 - - 10
03.04.2020 21:00:00 12,0 9,0 8 4 ESE - 10
03.04.2020 20:00:00 11,8 9,7 5 3 S 1011,8 12
03.04.2020 19:00:00 12,0 11,0 11 6 SSW - 9
03.04.2020 18:00:00 13,0 11,0 4 2 ESE - 8
03.04.2020 17:00:00 14,8 9,8 11 6 SSE 1010,8 10
03.04.2020 16:00:00 16,0 10,0 15 8 SSE - 10
03.04.2020 15:00:00 16,0 10,0 15 8 SSE - 10
03.04.2020 14:00:00 16,0 9,7 9 5 SSE 1011,1 15
03.04.2020 13:00:00 16,0 10,0 9 5 S - 10
03.04.2020 12:00:00 16,0 10,0 5 3 ESE - 10
03.04.2020 11:00:00 13,8 9,7 9 5 NNW 1011,0 15
03.04.2020 10:00:00 12,0 9,0 9 5 NW - 10
03.04.2020 09:00:00 10,0 7,0 4 2 WNW - 10
03.04.2020 08:00:00 9,0 6,1 2 1 WSW 1010,8 12
03.04.2020 07:00:00 9,0 6,0 2 1 WNW - 10
03.04.2020 06:00:00 9,0 6,0 2 1 NNE - 10
03.04.2020 05:00:00 8,8 5,9 5 3 W 1010,7 10
03.04.2020 04:00:00 9,0 6,0 8 4 NE - 10
03.04.2020 03:00:00 9,0 6,0 5 3 N - 10
03.04.2020 02:00:00 8,4 5,5 4 2 ENE 1011,5 10
03.04.2020 01:00:00 8,0 5,0 4 2 N - 10
03.04.2020 00:00:00 8,0 5,0 9 5 NE - 10
02.04.2020 23:00:00 8,4 5,9 5 3 NE 1011,7 10
02.04.2020 22:00:00 9,0 7,0 2 1 ESE - 10
02.04.2020 21:00:00 9,0 7,0 5 3 SSE - 8
02.04.2020 20:00:00 9,8 7,9 9 5 E 1011,2 8
02.04.2020 19:00:00 10,0 8,0 11 6 S - 4,0
02.04.2020 18:00:00 12,0 8,0 16 9 S - 10
02.04.2020 17:00:00 13,6 8,9 13 7 S 1010,9 18
02.04.2020 16:00:00 14,0 8,0 11 6 S - 10
02.04.2020 15:00:00 15,0 9,0 13 7 SSE - 10
02.04.2020 14:00:00 15,0 8,0 13 7 SSE 1012,8 18
02.04.2020 13:00:00 14,0 8,0 15 8 SE - 10
02.04.2020 12:00:00 13,0 7,0 11 6 ESE - 10
02.04.2020 11:00:00 11,8 6,1 11 6 E 1013,1 20
02.04.2020 10:00:00 11,0 6,0 13 7 ESE - 10
02.04.2020 09:00:00 9,0 7,0 5 3 SSE - 10
02.04.2020 08:00:00 8,4 6,5 4 2 E 1012,8 18
02.04.2020 07:00:00 8,0 6,0 5 3 NE - 10
02.04.2020 06:00:00 8,0 6,0 5 3 N - 10
02.04.2020 05:00:00 7,8 7,0 4 2 NNW 1013,9 12
02.04.2020 04:00:00 9,0 7,0 5 3 WNW - 10
02.04.2020 03:00:00 9,0 7,0 5 3 N - 10
02.04.2020 02:00:00 8,8 7,2 4 2 NNW 1014,8 10
02.04.2020 01:00:00 9,0 7,0 4 2 NNE - 10
02.04.2020 00:00:00 9,0 7,0 4 2 NE - 10
01.04.2020 23:00:00 9,0 6,6 4 2 E 1014,9 12
01.04.2020 22:00:00 10,0 8,0 5 3 ENE - 10
01.04.2020 21:00:00 10,0 8,0 5 3 W - 10
01.04.2020 20:00:00 11,0 6,4 5 3 NNE 1013,9 15
01.04.2020 19:00:00 12,0 7,0 8 4 S - 10
01.04.2020 18:00:00 14,0 6,0 13 7 ESE - 10
01.04.2020 17:00:00 14,2 4,8 15 8 SSE 1014,7 10
01.04.2020 16:00:00 16,0 5,0 15 8 SSE - 10
01.04.2020 15:00:00 17,0 7,0 11 6 SSW - 10
01.04.2020 14:00:00 18,0 8,3 8 4 SW 1014,8 15
01.04.2020 13:00:00 17,0 7,0 9 5 E - 10
01.04.2020 12:00:00 16,0 6,0 8 4 S - 10
01.04.2020 11:00:00 14,2 6,1 11 6 ENE 1015,8 18
01.04.2020 10:00:00 13,0 5,0 16 9 ENE - 10
01.04.2020 09:00:00 10,0 7,0 9 5 E - 10
01.04.2020 08:00:00 9,8 6,2 5 3 NE 1015,1 15
01.04.2020 07:00:00 10,0 6,0 16 9 NNE - 10
01.04.2020 06:00:00 11,0 8,0 9 5 NE - 10
01.04.2020 05:00:00 11,8 9,5 2 1 WNW 1014,7 10
01.04.2020 04:00:00 12,0 10,0 8 4 W - 10
01.04.2020 03:00:00 13,0 11,0 4 2 NE - 10
01.04.2020 02:00:00 13,0 11,2 4 2 N 1015,0 10
01.04.2020 01:00:00 13,0 11,0 5 3 NW - 10
01.04.2020 00:00:00 13,0 11,0 8 4 W - 10
31.03.2020 23:00:00 13,2 11,2 4 2 E 1014,8 10
31.03.2020 22:00:00 13,0 11,0 9 5 ENE - 10
31.03.2020 21:00:00 14,0 12,0 9 5 SSE - 10
31.03.2020 20:00:00 14,0 13,4 15 8 SE 1013,5 12
31.03.2020 19:00:00 15,0 14,0 18 10 SSE - 10
31.03.2020 18:00:00 16,0 13,0 18 10 SSE - 10
31.03.2020 17:00:00 16,0 13,1 16 9 SSE 1013,1 15
31.03.2020 16:00:00 17,0 11,0 13 7 SSE - 10
31.03.2020 15:00:00 18,0 11,0 16 9 SSE - 10
31.03.2020 14:00:00 20,2 10,6 13 7 SSE 1014,0 15
31.03.2020 13:00:00 19,0 10,0 13 7 S - 10
31.03.2020 12:00:00 19,0 12,0 8 4 SSE - 10
31.03.2020 11:00:00 14,8 10,2 2 1 SSW 1014,9 10
31.03.2020 10:00:00 11,0 8,0 5 3 WNW - 8
31.03.2020 09:00:00 8,0 5,0 2 1 N - 4,0
31.03.2020 08:00:00 5,4 2,6 5 3 NW 1014,7 1,5
31.03.2020 07:00:00 5,0 2,0 5 3 NW - 8
31.03.2020 06:00:00 6,0 3,0 4 2 N - 0,5
31.03.2020 05:00:00 6,0 3,3 5 3 N 1014,1 0,5
31.03.2020 04:00:00 7,0 4,0 2 1 N - 10
31.03.2020 03:00:00 8,0 5,0 5 3 N - 10
31.03.2020 02:00:00 8,2 5,7 4 2 WSW 1014,4 10
31.03.2020 01:00:00 10,0 7,0 4 2 NNW - 10
31.03.2020 00:00:00 10,0 8,0 9 5 N - 10
30.03.2020 23:00:00 10,4 8,8 9 5 W 1014,4 12
30.03.2020 22:00:00 12,0 11,0 13 7 N - 8
30.03.2020 21:00:00 13,0 11,0 15 8 NNW - 10
30.03.2020 20:00:00 13,8 11,5 16 9 NNW 1012,8 10
30.03.2020 19:00:00 15,0 11,0 21 11 WNW - 10
30.03.2020 18:00:00 17,0 11,0 22 12 WNW - 10
30.03.2020 17:00:00 17,8 8,1 24 13 NNW 1011,9 15
30.03.2020 16:00:00 18,0 9,0 18 10 NW - 10
30.03.2020 15:00:00 18,0 10,0 18 10 NW - 10
30.03.2020 14:00:00 18,8 12,5 11 6 W 1012,0 12
30.03.2020 13:00:00 18,0 13,0 8 4 NW - 10
30.03.2020 12:00:00 17,0 13,0 8 4 W - 10
30.03.2020 11:00:00 14,6 10,8 4 2 WNW 1012,2 12
30.03.2020 10:00:00 9,0 6,0 5 3 ENE - 10
30.03.2020 09:00:00 7,0 4,0 2 1 NW - 10
30.03.2020 08:00:00 6,2 3,0 4 2 NW 1011,4 10
30.03.2020 07:00:00 7,0 4,0 2 1 NNW - 10
30.03.2020 06:00:00 7,0 3,0 8 4 NNE - 10
30.03.2020 05:00:00 7,0 3,8 4 2 N 1011,8 10
30.03.2020 04:00:00 7,0 4,0 4 2 NNE - 10
30.03.2020 03:00:00 7,0 4,0 9 5 NE - 10
30.03.2020 02:00:00 7,0 4,1 4 2 N 1011,8 10
30.03.2020 01:00:00 7,0 4,0 8 4 N - 10
30.03.2020 00:00:00 8,0 5,0 2 1 - - 10
29.03.2020 23:00:00 8,4 5,5 9 5 NE 1012,7 10
29.03.2020 22:00:00 9,0 7,0 9 5 NNW - 10
29.03.2020 21:00:00 9,0 7,0 4 2 W - 10
29.03.2020 20:00:00 9,0 6,6 5 3 S 1012,3 10
29.03.2020 19:00:00 10,0 8,0 8 4 E - 10
29.03.2020 18:00:00 10,0 9,0 11 6 ENE - 5
29.03.2020 17:00:00 13,4 9,5 13 7 W 1011,4 6
29.03.2020 16:00:00 13,0 10,0 15 8 SSE - 10
29.03.2020 15:00:00 16,0 9,0 21 11 SE - 10
29.03.2020 14:00:00 18,2 7,0 5 3 W 1012,2 12
29.03.2020 13:00:00 17,0 8,0 8 4 WNW - 10
29.03.2020 12:00:00 15,0 10,0 9 5 WNW - 10
29.03.2020 11:00:00 11,4 8,1 4 2 W 1013,9 10
29.03.2020 10:00:00 8,0 5,0 5 3 WNW - 10
29.03.2020 09:00:00 7,0 4,0 4 2 WNW - 10
29.03.2020 08:00:00 4,6 1,5 4 2 NNW 1013,7 7
29.03.2020 07:00:00 4,0 1,0 4 2 N - 1,2
29.03.2020 06:00:00 5,0 2,0 5 3 NW - 0,8
29.03.2020 05:00:00 5,8 3,0 8 4 N 1013,9 12
29.03.2020 04:00:00 7,0 5,0 4 2 NE - 10
29.03.2020 03:00:00 8,0 5,0 4 2 NE - 10
29.03.2020 02:00:00 8,0 5,8 8 4 N 1014,9 15
29.03.2020 01:00:00 9,0 7,0 5 3 E - 10
29.03.2020 00:00:00 - - - - - - -

tt = temperature
td = dewpoint
ff = wind speed
dd = wind direction
ppp = reduced air pressure
vv = visibility

Next stations